Вернуться в каталог

STARLINK-31163

АктивенСвязьVLEO
NORAD 58807·PAYLOAD·🇺🇸 United States

Запущен Jan 15, 2024 с Cape Canaveral Space Force Station

Loading…

Ближайшие Пролёты (ближайшие 24 часа)

TLE

СвежийSource: CelesTrak SupGP

Эпоха: Sep 14, 2026, 20:48 UTC

1 58807C 24012W   26257.86715278  .00018296  00000+0  65457-3 0  2575
2 58807  43.0000 176.4663 0001370 203.8420 128.5782 15.27973208    18

Отслеживайте STARLINK-31163 в реальном времени с AllMySat

Download on the App Store